�������r�C�����j�^�v���󋵏��
Date,Time,5�C6���@���p�r�C��,����,����(m/s)
2024/05/23,00:00,3.7,��,7.2
2024/05/23,00:10,3.6,��,7.4
2024/05/23,00:20,3.8,��,7.6
2024/05/23,00:30,3.6,��,7.6
2024/05/23,00:40,4.0,��,7.7
2024/05/23,00:50,3.7,��,8.2
2024/05/23,01:00,3.7,��,7.1
2024/05/23,01:10,3.5,��,6.5
2024/05/23,01:20,3.6,��,6.2
2024/05/23,01:30,3.6,��,7.0
2024/05/23,01:40,3.6,��,6.4
2024/05/23,01:50,3.6,��,6.6
2024/05/23,02:00,3.6,��,6.0
2024/05/23,02:10,3.7,��,6.5
2024/05/23,02:20,3.6,��,7.0
2024/05/23,02:30,3.6,��,6.8
2024/05/23,02:40,3.4,��쐼,6.5
2024/05/23,02:50,3.6,��쐼,6.1
2024/05/23,03:00,3.5,��쐼,6.5
2024/05/23,03:10,3.6,��쐼,6.0
2024/05/23,03:20,3.6,��쐼,5.6
2024/05/23,03:30,3.6,��,6.2
2024/05/23,03:40,3.7,��쐼,5.7
2024/05/23,03:50,3.6,��쐼,5.9
2024/05/23,04:00,3.5,��,6.0
2024/05/23,04:10,3.7,��쐼,5.7
2024/05/23,04:20,3.6,��,6.2
2024/05/23,04:30,3.8,��쐼,5.0
2024/05/23,04:40,3.5,��,5.0
2024/05/23,04:50,3.6,��쐼,4.3
2024/05/23,05:00,3.6,��쐼,4.4
2024/05/23,05:10,3.5,��쐼,3.8
2024/05/23,05:20,3.5,��쐼,3.2
2024/05/23,05:30,3.7,��쐼,2.2
2024/05/23,05:40,3.6,��쐼,2.0
2024/05/23,05:50,3.6,��쐼,2.8
2024/05/23,06:00,3.7,��쐼,3.7
2024/05/23,06:10,3.5,��,2.2
2024/05/23,06:20,3.7,��쓌,1.2
2024/05/23,06:30,3.7,�쓌,0.6
2024/05/23,06:40,3.6,���쓌,0.8
2024/05/23,06:50,3.6,��,1.2
2024/05/23,07:00,3.6,�k�k��,0.6
2024/05/23,07:10,3.8,���k��,1.1
2024/05/23,07:20,3.5,-,CALM
2024/05/23,07:30,3.7,���쓌,0.9
2024/05/23,07:40,3.7,���쓌,1.1
2024/05/23,07:50,3.6,��쓌,1.5
2024/05/23,08:00,3.6,��쓌,4.5
2024/05/23,08:10,3.6,��,4.6
2024/05/23,08:20,3.6,��쓌,4.5
2024/05/23,08:30,3.7,��쓌,6.4
2024/05/23,08:40,3.6,��,6.5
2024/05/23,08:50,3.4,��,6.6
2024/05/23,09:00,3.7,��,6.7
2024/05/23,09:10,3.7,��,7.2
2024/05/23,09:20,3.7,��,6.9
2024/05/23,09:30,3.6,��쓌,6.0
2024/05/23,09:40,3.6,��,6.4
2024/05/23,09:50,3.7,��,6.2
2024/05/23,10:00,3.8,��,7.7
2024/05/23,10:10,3.7,��,8.2
2024/05/23,10:20,3.5,��,9.1
2024/05/23,10:30,3.6,��,9.8
2024/05/23,10:40,3.5,��쓌,9.2
2024/05/23,10:50,3.7,��,10.5
2024/05/23,11:00,3.5,��,9.8
2024/05/23,11:10,3.5,��,11.6
2024/05/23,11:20,3.8,��,10.8
2024/05/23,11:30,3.7,��,10.3
2024/05/23,11:40,3.5,��쓌,8.7
2024/05/23,11:50,3.7,��,10.3
2024/05/23,12:00,3.5,��,9.1
2024/05/23,12:10,3.6,��쓌,10.5
2024/05/23,12:20,3.6,��,10.5
2024/05/23,12:30,3.6,��,10.6
2024/05/23,12:40,3.7,��,11.1
2024/05/23,12:50,3.5,��,12.4
2024/05/23,13:00,3.7,��,11.6
2024/05/23,13:10,3.5,��,9.4
2024/05/23,13:20,3.7,��,10.2
2024/05/23,13:30,3.6,��,9.8
2024/05/23,13:40,3.5,��,8.5
2024/05/23,13:50,3.6,��,8.5
2024/05/23,14:00,3.6,��쓌,10.2
2024/05/23,14:10,3.7,��,11.1
2024/05/23,14:20,3.6,��,11.8
2024/05/23,14:30,3.6,��,10.7
2024/05/23,14:40,3.7,��,10.3
2024/05/23,14:50,3.6,��,10.6
2024/05/23,15:00,3.6,��,9.8
2024/05/23,15:10,3.6,��,10.5
2024/05/23,15:20,3.6,��,11.4
2024/05/23,15:30,3.8,��,10.3
2024/05/23,15:40,3.7,��쓌,10.2
2024/05/23,15:50,3.6,��,9.6
2024/05/23,16:00,3.7,��,9.1
2024/05/23,16:10,3.7,��,9.8
2024/05/23,16:20,3.7,��,7.8
2024/05/23,16:30,3.6,��,8.2
2024/05/23,16:40,3.6,��,8.1
2024/05/23,16:50,3.6,��,8.4
2024/05/23,17:00,3.7,��,9.4
2024/05/23,17:10,3.5,��,9.2
2024/05/23,17:20,3.7,��,8.4
2024/05/23,17:30,3.4,��,9.2
2024/05/23,17:40,3.7,��,8.8
2024/05/23,17:50,3.5,��,7.6
2024/05/23,18:00,3.7,��,7.3
2024/05/23,18:10,3.7,��,7.4
2024/05/23,18:20,3.7,��,6.4
2024/05/23,18:30,3.5,��,7.5
2024/05/23,18:40,3.6,��,6.2
2024/05/23,18:50,3.6,��,7.0
2024/05/23,19:00,3.6,��,7.2
2024/05/23,19:10,3.7,��,7.6
2024/05/23,19:20,3.7,��,6.8
2024/05/23,19:30,3.5,��,5.4
2024/05/23,19:40,3.6,��,4.2
2024/05/23,19:50,3.8,��,4.2
2024/05/23,20:00,3.7,��,4.9
2024/05/23,20:10,3.6,��쐼,5.7
2024/05/23,20:20,3.6,��,6.3
2024/05/23,20:30,3.7,��쐼,7.0
2024/05/23,20:40,3.5,��쐼,6.6
2024/05/23,20:50,3.6,��쐼,6.3
2024/05/23,21:00,3.4,��쐼,6.3
2024/05/23,21:10,3.5,��쐼,6.2
2024/05/23,21:20,3.5,��쐼,5.6
2024/05/23,21:30,3.8,��쐼,3.7
2024/05/23,21:40,3.7,��쐼,3.4
2024/05/23,21:50,3.6,��쐼,3.6
2024/05/23,22:00,3.5,�쐼,2.0
2024/05/23,22:10,3.7,�쐼,1.7
2024/05/23,22:20,3.8,�쐼,2.3
2024/05/23,22:30,3.5,�쐼,2.3
2024/05/23,22:40,3.8,�쐼,2.5
2024/05/23,22:50,3.6,�쐼,3.2
2024/05/23,23:00,3.7,�쐼,2.0
2024/05/23,23:10,3.6,��쐼,1.2
2024/05/23,23:20,3.6,��쐼,0.6
2024/05/23,23:30,3.7,�쐼,0.6
2024/05/23,23:40,3.8,�쐼,1.1
2024/05/23,23:50,3.7,��쐼,2.0
